"Sample Date","Sample Time","Sample Value","Units","Flow Rate","Number Channels","Micron Size 0","Counts/Channel 0","Micron Size 1","Counts/Channel 1","Micron Size 2","Counts/Channel 2","Micron Size 3","Counts/Channel 3","Micron Size 4","Counts/Channel 4","Micron Size 5","Counts/Channel 5","Micron Size 6","Counts/Channel 6","Micron Size 7","Counts/Channel 7","Micron Size 8","Counts/Channel 8","Micron Size 9","Counts/Channel 9","Micron Size 10","Counts/Channel 10","Micron Size 11","Counts/Channel 11","Micron Size 12","Counts/Channel 12","Micron Size 13","Counts/Channel 13","Micron Size 14","Counts/Channel 14","Micron Size 15","Counts/Channel 15","Micron Size 16","Counts/Channel 16","Micron Size 17","Counts/Channel 17","Micron Size 18","Counts/Channel 18","Micron Size 19","Counts/Channel 19","Micron Size 20","Counts/Channel 20","Micron Size 21","Counts/Channel 21","Micron Size 22","Counts/Channel 22","Micron Size 23","Counts/Channel 23","Micron Size 24","Counts/Channel 24","Micron Size 25","Counts/Channel 25","Micron Size 26","Counts/Channel 26","Micron Size 27","Counts/Channel 27","Micron Size 28","Counts/Channel 28","Micron Size 29","Counts/Channel 29","Micron Size 30","Counts/Channel 30","Micron Size 31","Counts/Channel 31"
"05/11/08","14:00:03",1870.000,"cc",28321.553,6,0.100,1590.000,0.200,243.000,0.300,33.000,0.500,4.000,1.000,0,5.000,0
"05/11/08","14:00:09",1772.000,"cc",28337.172,6,0.100,1490.000,0.200,256.000,0.300,23.000,0.500,3.000,1.000,0,5.000,0
"05/11/08","14:00:15",1779.000,"cc",28367.660,6,0.100,1483.000,0.200,264.000,0.300,27.000,0.500,5.000,1.000,0,5.000,0
"05/11/08","14:00:21",1932.000,"cc",28332.172,6,0.100,1631.000,0.200,272.000,0.300,20.000,0.500,8.000,1.000,1.000,5.000,0
"05/11/08","14:00:27",1796.000,"cc",28299.342,6,0.100,1538.000,0.200,230.000,0.300,24.000,0.500,4.000,1.000,0,5.000,0
"05/11/08","14:00:33",2042.000,"cc",28248.133,6,0.100,1741.000,0.200,251.000,0.300,43.000,0.500,7.000,1.000,0,5.000,0
"05/11/08","14:00:39",2125.000,"cc",28259.246,6,0.100,1844.000,0.200,253.000,0.300,24.000,0.500,3.000,1.000,1.000,5.000,0
"05/11/08","14:00:45",1909.000,"cc",28311.082,6,0.100,1592.000,0.200,274.000,0.300,39.000,0.500,4.000,1.000,0,5.000,0
"05/11/08","14:00:51",1825.000,"cc",28277.752,6,0.100,1502.000,0.200,279.000,0.300,31.000,0.500,13.000,1.000,0,5.000,0
"05/11/08","14:00:57",1728.000,"cc",28262.832,6,0.100,1490.000,0.200,203.000,0.300,31.000,0.500,4.000,1.000,0,5.000,0
"05/11/08","14:01:03",1714.000,"cc",28322.145,6,0.100,1384.000,0.200,297.000,0.300,27.000,0.500,6.000,1.000,0,5.000,0
"05/11/08","14:01:09",1800.000,"cc",28302.666,6,0.100,1536.000,0.200,242.000,0.300,21.000,0.500,1.000,1.000,0,5.000,0
"05/11/08","14:01:15",1766.000,"cc",28329.662,6,0.100,1485.000,0.200,244.000,0.300,30.000,0.500,7.000,1.000,0,5.000,0
"05/11/08","14:01:21",1766.000,"cc",28427.055,6,0.100,1473.000,0.200,264.000,0.300,23.000,0.500,6.000,1.000,0,5.000,0
"05/11/08","14:01:27",1803.000,"cc",28327.295,6,0.100,1504.000,0.200,272.000,0.300,25.000,0.500,1.000,1.000,1.000,5.000,0
"05/11/08","14:01:33",1725.000,"cc",28318.523,6,0.100,1476.000,0.200,224.000,0.300,21.000,0.500,4.000,1.000,0,5.000,0
"05/11/08","14:01:39",1798.000,"cc",28294.508,6,0.100,1504.000,0.200,259.000,0.300,30.000,0.500,4.000,1.000,1.000,5.000,0
"05/11/08","14:01:45",1807.000,"cc",28251.375,6,0.100,1526.000,0.200,247.000,0.300,30.000,0.500,4.000,1.000,0,5.000,0
"05/11/08","14:01:51",1760.000,"cc",28302.816,6,0.100,1495.000,0.200,247.000,0.300,13.000,0.500,5.000,1.000,0,5.000,0
"05/11/08","14:01:57",2172.000,"cc",28303.100,6,0.100,1834.000,0.200,300.000,0.300,34.000,0.500,4.000,1.000,0,5.000,0
"05/11/08","14:02:03",1770.000,"cc",28296.553,6,0.100,1484.000,0.200,256.000,0.300,24.000,0.500,5.000,1.000,1.000,5.000,0
"05/11/08","14:02:09",1811.000,"cc",28374.848,6,0.100,1523.000,0.200,262.000,0.300,24.000,0.500,2.000,1.000,0,5.000,0
"05/11/08","14:02:15",1689.000,"cc",28320.775,6,0.100,1461.000,0.200,208.000,0.300,15.000,0.500,5.000,1.000,0,5.000,0
"05/11/08","14:02:21",1736.000,"cc",28370.828,6,0.100,1454.000,0.200,248.000,0.300,30.000,0.500,4.000,1.000,0,5.000,0
"05/11/08","14:02:27",1740.000,"cc",28314.986,6,0.100,1472.000,0.200,243.000,0.300,23.000,0.500,2.000,1.000,0,5.000,0
"05/11/08","14:02:33",1831.000,"cc",28281.004,6,0.100,1532.000,0.200,263.000,0.300,28.000,0.500,8.000,1.000,0,5.000,0
"05/11/08","14:02:39",1773.000,"cc",28300.264,6,0.100,1511.000,0.200,219.000,0.300,35.000,0.500,6.000,1.000,2.000,5.000,0
"05/11/08","14:02:45",1785.000,"cc",28334.461,6,0.100,1503.000,0.200,252.000,0.300,23.000,0.500,6.000,1.000,1.000,5.000,0
"05/11/08","14:02:51",1823.000,"cc",28311.676,6,0.100,1524.000,0.200,257.000,0.300,34.000,0.500,6.000,1.000,2.000,5.000,0
"05/11/08","14:02:57",1813.000,"cc",28391.830,6,0.100,1537.000,0.200,245.000,0.300,22.000,0.500,9.000,1.000,0,5.000,0
"05/11/08","14:03:03",1882.000,"cc",28307.197,6,0.100,1619.000,0.200,228.000,0.300,27.000,0.500,8.000,1.000,0,5.000,0
"05/11/08","14:03:09",1779.000,"cc",28236.619,6,0.100,1467.000,0.200,269.000,0.300,34.000,0.500,9.000,1.000,0,5.000,0
"05/11/08","14:03:15",1864.000,"cc",28291.186,6,0.100,1595.000,0.200,237.000,0.300,26.000,0.500,6.000,1.000,0,5.000,0
"05/11/08","14:03:21",1744.000,"cc",28325.731,6,0.100,1459.000,0.200,258.000,0.300,21.000,0.500,6.000,1.000,0,5.000,0
"05/11/08","14:03:27",1804.000,"cc",28359.281,6,0.100,1503.000,0.200,263.000,0.300,32.000,0.500,6.000,1.000,0,5.000,0
"05/11/08","14:03:33",1787.000,"cc",28310.006,6,0.100,1484.000,0.200,260.000,0.300,29.000,0.500,13.000,1.000,1.000,5.000,0
"05/11/08","14:03:39",1922.000,"cc",28293.416,6,0.100,1659.000,0.200,231.000,0.300,22.000,0.500,10.000,1.000,0,5.000,0
"05/11/08","14:03:45",2149.000,"cc",28357.641,6,0.100,1825.000,0.200,273.000,0.300,40.000,0.500,11.000,1.000,0,5.000,0
"05/11/08","14:03:51",1985.000,"cc",28364.141,6,0.100,1652.000,0.200,289.000,0.300,30.000,0.500,13.000,1.000,1.000,5.000,0
"05/11/08","14:03:57",1825.000,"cc",28302.145,6,0.100,1534.000,0.200,263.000,0.300,24.000,0.500,4.000,1.000,0,5.000,0
"05/11/08","14:04:03",1776.000,"cc",28303.213,6,0.100,1454.000,0.200,267.000,0.300,45.000,0.500,10.000,1.000,0,5.000,0
"05/11/08","14:04:09",1790.000,"cc",28300.906,6,0.100,1493.000,0.200,260.000,0.300,28.000,0.500,7.000,1.000,2.000,5.000,0
"05/11/08","14:04:15",1790.000,"cc",28325.682,6,0.100,1507.000,0.200,249.000,0.300,31.000,0.500,3.000,1.000,0,5.000,0
"05/11/08","14:04:21",1762.000,"cc",28320.522,6,0.100,1474.000,0.200,263.000,0.300,20.000,0.500,5.000,1.000,0,5.000,0
"05/11/08","14:04:27",1797.000,"cc",28337.076,6,0.100,1525.000,0.200,241.000,0.300,29.000,0.500,2.000,1.000,0,5.000,0
"05/11/08","14:04:33",1833.000,"cc",28323.154,6,0.100,1565.000,0.200,239.000,0.300,23.000,0.500,5.000,1.000,1.000,5.000,0
"05/11/08","14:04:39",1804.000,"cc",28252.783,6,0.100,1513.000,0.200,264.000,0.300,24.000,0.500,3.000,1.000,0,5.000,0
"05/11/08","14:04:45",2098.000,"cc",28273.211,6,0.100,1782.000,0.200,292.000,0.300,21.000,0.500,2.000,1.000,1.000,5.000,0
"05/11/08","14:04:51",2039.000,"cc",28316.488,6,0.100,1719.000,0.200,275.000,0.300,40.000,0.500,5.000,1.000,0,5.000,0
"05/11/08","14:04:57",2223.000,"cc",28372.994,6,0.100,1886.000,0.200,294.000,0.300,38.000,0.500,4.000,1.000,1.000,5.000,0
"05/11/08","14:05:03",2089.000,"cc",28299.654,6,0.100,1758.000,0.200,287.000,0.300,32.000,0.500,12.000,1.000,0,5.000,0
"05/11/08","14:05:09",2189.000,"cc",28316.172,6,0.100,1819.000,0.200,328.000,0.300,34.000,0.500,8.000,1.000,0,5.000,0
"05/11/08","14:05:15",1939.000,"cc",28352.752,6,0.100,1625.000,0.200,265.000,0.300,43.000,0.500,6.000,1.000,0,5.000,0
"05/11/08","14:05:21",1999.000,"cc",28278.447,6,0.100,1698.000,0.200,270.000,0.300,28.000,0.500,3.000,1.000,0,5.000,0
"05/11/08","14:05:27",1805.000,"cc",28314.215,6,0.100,1534.000,0.200,241.000,0.300,23.000,0.500,6.000,1.000,1.000,5.000,0
"05/11/08","14:05:33",1761.000,"cc",28324.764,6,0.100,1477.000,0.200,249.000,0.300,28.000,0.500,6.000,1.000,1.000,5.000,0
"05/11/08","14:05:39",1886.000,"cc",28335.674,6,0.100,1587.000,0.200,263.000,0.300,29.000,0.500,7.000,1.000,0,5.000,0
"05/11/08","14:05:45",1908.000,"cc",28320.775,6,0.100,1600.000,0.200,265.000,0.300,32.000,0.500,11.000,1.000,0,5.000,0
"05/11/08","14:05:51",1775.000,"cc",28266.479,6,0.100,1503.000,0.200,232.000,0.300,30.000,0.500,10.000,1.000,0,5.000,0
"05/11/08","14:05:57",1840.000,"cc",28300.453,6,0.100,1579.000,0.200,227.000,0.300,27.000,0.500,7.000,1.000,0,5.000,0
"05/11/08","14:06:03",1868.000,"cc",28350.086,6,0.100,1583.000,0.200,247.000,0.300,26.000,0.500,12.000,1.000,0,5.000,0
"05/11/08","14:06:09",1879.000,"cc",28320.258,6,0.100,1574.000,0.200,267.000,0.300,32.000,0.500,6.000,1.000,0,5.000,0
"05/11/08","14:06:15",1903.000,"cc",28342.225,6,0.100,1614.000,0.200,259.000,0.300,25.000,0.500,5.000,1.000,0,5.000,0
"05/11/08","14:06:21",1889.000,"cc",28324.092,6,0.100,1579.000,0.200,279.000,0.300,28.000,0.500,3.000,1.000,0,5.000,0
"05/11/08","14:06:27",1710.000,"cc",28286.227,6,0.100,1430.000,0.200,238.000,0.300,38.000,0.500,4.000,1.000,0,5.000,0
"05/11/08","14:06:33",1772.000,"cc",28368.090,6,0.100,1502.000,0.200,241.000,0.300,22.000,0.500,7.000,1.000,0,5.000,0
"05/11/08","14:06:39",1637.000,"cc",28260.016,6,0.100,1381.000,0.200,237.000,0.300,17.000,0.500,1.000,1.000,1.000,5.000,0
"05/11/08","14:06:45",1711.000,"cc",28356.549,6,0.100,1455.000,0.200,222.000,0.300,29.000,0.500,5.000,1.000,0,5.000,0
"05/11/08","14:06:51",1748.000,"cc",28324.359,6,0.100,1480.000,0.200,231.000,0.300,27.000,0.500,10.000,1.000,0,5.000,0
"05/11/08","14:06:57",1771.000,"cc",28308.275,6,0.100,1494.000,0.200,250.000,0.300,23.000,0.500,4.000,1.000,0,5.000,0
"05/11/08","14:07:03",1692.000,"cc",28303.119,6,0.100,1453.000,0.200,213.000,0.300,24.000,0.500,2.000,1.000,0,5.000,0
"05/11/08","14:07:09",1625.000,"cc",28381.553,6,0.100,1393.000,0.200,209.000,0.300,19.000,0.500,4.000,1.000,0,5.000,0
"05/11/08","14:07:15",1741.000,"cc",28294.520,6,0.100,1448.000,0.200,259.000,0.300,29.000,0.500,4.000,1.000,1.000,5.000,0
"05/11/08","14:07:21",1732.000,"cc",28281.022,6,0.100,1479.000,0.200,221.000,0.300,24.000,0.500,7.000,1.000,1.000,5.000,0
"05/11/08","14:07:27",1674.000,"cc",28321.549,6,0.100,1421.000,0.200,222.000,0.300,27.000,0.500,4.000,1.000,0,5.000,0
"05/11/08","14:07:33",1676.000,"cc",28288.379,6,0.100,1448.000,0.200,202.000,0.300,22.000,0.500,4.000,1.000,0,5.000,0
"05/11/08","14:07:39",1791.000,"cc",28330.869,6,0.100,1509.000,0.200,253.000,0.300,23.000,0.500,5.000,1.000,1.000,5.000,0
"05/11/08","14:07:45",1766.000,"cc",28292.613,6,0.100,1503.000,0.200,229.000,0.300,30.000,0.500,4.000,1.000,0,5.000,0
"05/11/08","14:07:51",1721.000,"cc",28316.930,6,0.100,1440.000,0.200,243.000,0.300,31.000,0.500,6.000,1.000,1.000,5.000,0
"05/11/08","14:07:57",1670.000,"cc",28327.686,6,0.100,1384.000,0.200,249.000,0.300,31.000,0.500,6.000,1.000,0,5.000,0
"05/11/08","14:08:03",1729.000,"cc",28265.525,6,0.100,1475.000,0.200,218.000,0.300,23.000,0.500,12.000,1.000,1.000,5.000,0
"05/11/08","14:08:09",1685.000,"cc",28312.029,6,0.100,1424.000,0.200,232.000,0.300,20.000,0.500,8.000,1.000,1.000,5.000,0
"05/11/08","14:08:15",1744.000,"cc",28397.832,6,0.100,1466.000,0.200,240.000,0.300,30.000,0.500,8.000,1.000,0,5.000,0
"05/11/08","14:08:21",1646.000,"cc",28346.147,6,0.100,1368.000,0.200,254.000,0.300,20.000,0.500,4.000,1.000,0,5.000,0
"05/11/08","14:08:27",1759.000,"cc",28278.148,6,0.100,1456.000,0.200,273.000,0.300,26.000,0.500,4.000,1.000,0,5.000,0
"05/11/08","14:08:33",1708.000,"cc",28252.565,6,0.100,1427.000,0.200,240.000,0.300,34.000,0.500,6.000,1.000,1.000,5.000,0
"05/11/08","14:08:39",1760.000,"cc",28363.797,6,0.100,1484.000,0.200,250.000,0.300,24.000,0.500,2.000,1.000,0,5.000,0
"05/11/08","14:08:45",1676.000,"cc",28338.523,6,0.100,1394.000,0.200,252.000,0.300,25.000,0.500,5.000,1.000,0,5.000,0
"05/11/08","14:08:51",1771.000,"cc",28229.275,6,0.100,1476.000,0.200,263.000,0.300,27.000,0.500,5.000,1.000,0,5.000,0
"05/11/08","14:08:57",1710.000,"cc",28318.016,6,0.100,1432.000,0.200,244.000,0.300,26.000,0.500,8.000,1.000,0,5.000,0
"05/11/08","14:09:03",1753.000,"cc",28330.195,6,0.100,1482.000,0.200,242.000,0.300,22.000,0.500,7.000,1.000,0,5.000,0
"05/11/08","14:09:09",1773.000,"cc",28299.975,6,0.100,1495.000,0.200,236.000,0.300,33.000,0.500,9.000,1.000,0,5.000,0
"05/11/08","14:09:15",1781.000,"cc",28334.811,6,0.100,1490.000,0.200,267.000,0.300,19.000,0.500,4.000,1.000,1.000,5.000,0
"05/11/08","14:09:21",1741.000,"cc",28312.908,6,0.100,1488.000,0.200,226.000,0.300,22.000,0.500,5.000,1.000,0,5.000,0
"05/11/08","14:09:27",1710.000,"cc",28326.641,6,0.100,1443.000,0.200,239.000,0.300,25.000,0.500,3.000,1.000,0,5.000,0
"05/11/08","14:09:33",1788.000,"cc",28321.836,6,0.100,1512.000,0.200,241.000,0.300,28.000,0.500,6.000,1.000,1.000,5.000,0
"05/11/08","14:09:39",1737.000,"cc",28400.078,6,0.100,1480.000,0.200,225.000,0.300,27.000,0.500,4.000,1.000,1.000,5.000,0
"05/11/08","14:09:45",1776.000,"cc",28316.803,6,0.100,1483.000,0.200,261.000,0.300,23.000,0.500,8.000,1.000,1.000,5.000,0
"05/11/08","14:09:51",1754.000,"cc",28300.346,6,0.100,1430.000,0.200,284.000,0.300,32.000,0.500,7.000,1.000,1.000,5.000,0
"05/11/08","14:09:57",1726.000,"cc",28327.568,6,0.100,1455.000,0.200,246.000,0.300,15.000,0.500,10.000,1.000,0,5.000,0
"05/11/08","14:10:03",1762.000,"cc",28342.723,6,0.100,1491.000,0.200,242.000,0.300,24.000,0.500,5.000,1.000,0,5.000,0
"05/11/08","14:10:09",1843.000,"cc",28373.885,6,0.100,1553.000,0.200,256.000,0.300,29.000,0.500,5.000,1.000,0,5.000,0
"05/11/08","14:10:15",1828.000,"cc",28237.377,6,0.100,1534.000,0.200,264.000,0.300,28.000,0.500,2.000,1.000,0,5.000,0
"05/11/08","14:10:21",1750.000,"cc",28307.176,6,0.100,1460.000,0.200,250.000,0.300,36.000,0.500,3.000,1.000,1.000,5.000,0
"05/11/08","14:10:27",1775.000,"cc",28295.777,6,0.100,1508.000,0.200,230.000,0.300,33.000,0.500,4.000,1.000,0,5.000,0
"05/11/08","14:10:33",1787.000,"cc",28272.225,6,0.100,1524.000,0.200,229.000,0.300,31.000,0.500,3.000,1.000,0,5.000,0
"05/11/08","14:10:39",1864.000,"cc",28359.441,6,0.100,1547.000,0.200,282.000,0.300,29.000,0.500,6.000,1.000,0,5.000,0
"05/11/08","14:10:45",1885.000,"cc",28296.822,6,0.100,1589.000,0.200,267.000,0.300,22.000,0.500,6.000,1.000,1.000,5.000,0
"05/11/08","14:10:51",2291.000,"cc",28244.623,6,0.100,1963.000,0.200,297.000,0.300,26.000,0.500,5.000,1.000,0,5.000,0
"05/11/08","14:10:57",1868.000,"cc",28357.281,6,0.100,1589.000,0.200,247.000,0.300,29.000,0.500,3.000,1.000,0,5.000,0
"05/11/08","14:11:03",1900.000,"cc",28331.693,6,0.100,1599.000,0.200,270.000,0.300,22.000,0.500,9.000,1.000,0,5.000,0
"05/11/08","14:11:09",1754.000,"cc",28369.623,6,0.100,1475.000,0.200,244.000,0.300,30.000,0.500,3.000,1.000,2.000,5.000,0
"05/11/08","14:11:15",1914.000,"cc",28308.582,6,0.100,1597.000,0.200,281.000,0.300,28.000,0.500,8.000,1.000,0,5.000,0
"05/11/08","14:11:21",1838.000,"cc",28279.844,6,0.100,1485.000,0.200,310.000,0.300,36.000,0.500,7.000,1.000,0,5.000,0
"05/11/08","14:11:27",1809.000,"cc",28262.094,6,0.100,1520.000,0.200,249.000,0.300,32.000,0.500,8.000,1.000,0,5.000,0
"05/11/08","14:11:33",1870.000,"cc",28334.975,6,0.100,1551.000,0.200,277.000,0.300,35.000,0.500,7.000,1.000,0,5.000,0
"05/11/08","14:11:39",1869.000,"cc",28366.826,6,0.100,1580.000,0.200,248.000,0.300,33.000,0.500,8.000,1.000,0,5.000,0
"05/11/08","14:11:45",1866.000,"cc",28286.910,6,0.100,1560.000,0.200,269.000,0.300,32.000,0.500,5.000,1.000,0,5.000,0
"05/11/08","14:11:51",1917.000,"cc",28340.203,6,0.100,1592.000,0.200,289.000,0.300,29.000,0.500,7.000,1.000,0,5.000,0
"05/11/08","14:11:57",1800.000,"cc",28397.709,6,0.100,1506.000,0.200,257.000,0.300,30.000,0.500,7.000,1.000,0,5.000,0
"05/11/08","14:12:03",1973.000,"cc",28327.680,6,0.100,1649.000,0.200,301.000,0.300,21.000,0.500,2.000,1.000,0,5.000,0
"05/11/08","14:12:09",1999.000,"cc",28338.715,6,0.100,1671.000,0.200,295.000,0.300,24.000,0.500,9.000,1.000,0,5.000,0
"05/11/08","14:12:15",1886.000,"cc",28328.936,6,0.100,1597.000,0.200,260.000,0.300,23.000,0.500,6.000,1.000,0,5.000,0
"05/11/08","14:12:21",1958.000,"cc",28279.551,6,0.100,1619.000,0.200,290.000,0.300,37.000,0.500,10.000,1.000,2.000,5.000,0
"05/11/08","14:12:27",1961.000,"cc",28297.203,6,0.100,1646.000,0.200,281.000,0.300,28.000,0.500,6.000,1.000,0,5.000,0
"05/11/08","14:12:33",2001.000,"cc",28336.940,6,0.100,1671.000,0.200,295.000,0.300,28.000,0.500,7.000,1.000,0,5.000,0
"05/11/08","14:12:39",2070.000,"cc",28367.303,6,0.100,1738.000,0.200,290.000,0.300,34.000,0.500,7.000,1.000,1.000,5.000,0
"05/11/08","14:12:45",1869.000,"cc",28321.869,6,0.100,1579.000,0.200,250.000,0.300,27.000,0.500,12.000,1.000,1.000,5.000,0
"05/11/08","14:12:51",2025.000,"cc",28339.645,6,0.100,1678.000,0.200,304.000,0.300,34.000,0.500,9.000,1.000,0,5.000,0
"05/11/08","14:12:57",1858.000,"cc",28303.914,6,0.100,1548.000,0.200,274.000,0.300,29.000,0.500,6.000,1.000,1.000,5.000,0
"05/11/08","14:13:03",1808.000,"cc",28312.090,6,0.100,1515.000,0.200,258.000,0.300,24.000,0.500,11.000,1.000,0,5.000,0
"05/11/08","14:13:09",1786.000,"cc",28224.320,6,0.100,1499.000,0.200,250.000,0.300,29.000,0.500,8.000,1.000,0,5.000,0
"05/11/08","14:13:15",1927.000,"cc",28367.109,6,0.100,1636.000,0.200,252.000,0.300,30.000,0.500,8.000,1.000,1.000,5.000,0
"05/11/08","14:13:21",2069.000,"cc",28388.832,6,0.100,1704.000,0.200,317.000,0.300,37.000,0.500,11.000,1.000,0,5.000,0
"05/11/08","14:13:27",1990.000,"cc",28320.475,6,0.100,1621.000,0.200,329.000,0.300,31.000,0.500,9.000,1.000,0,5.000,0
"05/11/08","14:13:33",1979.000,"cc",28311.723,6,0.100,1643.000,0.200,288.000,0.300,32.000,0.500,15.000,1.000,1.000,5.000,0
"05/11/08","14:13:39",1954.000,"cc",28281.445,6,0.100,1618.000,0.200,292.000,0.300,37.000,0.500,6.000,1.000,1.000,5.000,0
"05/11/08","14:13:45",1967.000,"cc",28244.096,6,0.100,1631.000,0.200,297.000,0.300,35.000,0.500,4.000,1.000,0,5.000,0
"05/11/08","14:13:51",2165.000,"cc",28355.260,6,0.100,1789.000,0.200,342.000,0.300,24.000,0.500,9.000,1.000,1.000,5.000,0
"05/11/08","14:13:57",2064.000,"cc",28360.416,6,0.100,1721.000,0.200,302.000,0.300,33.000,0.500,8.000,1.000,0,5.000,0
"05/11/08","14:14:03",2655.000,"cc",28309.574,6,0.100,2234.000,0.200,374.000,0.300,36.000,0.500,10.000,1.000,1.000,5.000,0
"05/11/08","14:14:09",2672.000,"cc",28298.424,6,0.100,2232.000,0.200,397.000,0.300,35.000,0.500,7.000,1.000,1.000,5.000,0
"05/11/08","14:14:15",4386.000,"cc",28298.172,6,0.100,3711.000,0.200,590.000,0.300,72.000,0.500,13.000,1.000,0,5.000,0
"05/11/08","14:14:21",4391.000,"cc",28326.422,6,0.100,3706.000,0.200,596.000,0.300,80.000,0.500,9.000,1.000,0,5.000,0
"05/11/08","14:14:27",2954.000,"cc",28256.268,6,0.100,2492.000,0.200,408.000,0.300,41.000,0.500,13.000,1.000,0,5.000,0
"05/11/08","14:14:33",2527.000,"cc",28323.580,6,0.100,2105.000,0.200,382.000,0.300,39.000,0.500,1.000,1.000,0,5.000,0
"05/11/08","14:14:39",2274.000,"cc",28351.084,6,0.100,1883.000,0.200,344.000,0.300,39.000,0.500,8.000,1.000,0,5.000,0
"05/11/08","14:14:45",2763.000,"cc",28304.356,6,0.100,2310.000,0.200,387.000,0.300,55.000,0.500,10.000,1.000,1.000,5.000,0
"05/11/08","14:14:51",2548.000,"cc",28308.715,6,0.100,2148.000,0.200,368.000,0.300,30.000,0.500,2.000,1.000,0,5.000,0
"05/11/08","14:14:57",2381.000,"cc",28318.758,6,0.100,1986.000,0.200,349.000,0.300,37.000,0.500,8.000,1.000,1.000,5.000,0
"05/11/08","14:15:03",2917.000,"cc",28277.566,6,0.100,2458.000,0.200,404.000,0.300,44.000,0.500,11.000,1.000,0,5.000,0
"05/11/08","14:15:09",3813.000,"cc",28329.188,6,0.100,3250.000,0.200,486.000,0.300,64.000,0.500,13.000,1.000,0,5.000,0
"05/11/08","14:15:15",3575.000,"cc",28319.391,6,0.100,3019.000,0.200,479.000,0.300,62.000,0.500,15.000,1.000,0,5.000,0
"05/11/08","14:15:21",3028.000,"cc",28387.963,6,0.100,2550.000,0.200,423.000,0.300,44.000,0.500,11.000,1.000,0,5.000,0
"05/11/08","14:15:27",5536.000,"cc",28340.531,6,0.100,4687.000,0.200,753.000,0.300,81.000,0.500,13.000,1.000,2.000,5.000,0
"05/11/08","14:15:33",4475.000,"cc",28334.832,6,0.100,3795.000,0.200,607.000,0.300,58.000,0.500,14.000,1.000,1.000,5.000,0
"05/11/08","14:15:39",3072.000,"cc",28268.783,6,0.100,2590.000,0.200,418.000,0.300,57.000,0.500,7.000,1.000,0,5.000,0
"05/11/08","14:15:45",3112.000,"cc",28321.293,6,0.100,2633.000,0.200,431.000,0.300,42.000,0.500,6.000,1.000,0,5.000,0
"05/11/08","14:15:51",3969.000,"cc",28350.645,6,0.100,3385.000,0.200,524.000,0.300,52.000,0.500,8.000,1.000,0,5.000,0
"05/11/08","14:15:57",3694.000,"cc",28400.758,6,0.100,3149.000,0.200,499.000,0.300,44.000,0.500,2.000,1.000,0,5.000,0
"05/11/08","14:16:03",3165.000,"cc",28316.895,6,0.100,2652.000,0.200,456.000,0.300,49.000,0.500,8.000,1.000,0,5.000,0
"05/11/08","14:16:09",2712.000,"cc",28350.336,6,0.100,2315.000,0.200,357.000,0.300,38.000,0.500,2.000,1.000,0,5.000,0
"05/11/08","14:16:15",2690.000,"cc",28334.752,6,0.100,2289.000,0.200,358.000,0.300,38.000,0.500,4.000,1.000,1.000,5.000,0
"05/11/08","14:16:21",2063.000,"cc",28297.371,6,0.100,1714.000,0.200,308.000,0.300,37.000,0.500,4.000,1.000,0,5.000,0
"05/11/08","14:16:27",2297.000,"cc",28291.699,6,0.100,1966.000,0.200,306.000,0.300,22.000,0.500,3.000,1.000,0,5.000,0
"05/11/08","14:16:33",2057.000,"cc",28310.459,6,0.100,1723.000,0.200,302.000,0.300,28.000,0.500,4.000,1.000,0,5.000,0
"05/11/08","14:16:39",1985.000,"cc",28310.074,6,0.100,1663.000,0.200,281.000,0.300,34.000,0.500,5.000,1.000,2.000,5.000,0
"05/11/08","14:16:45",2086.000,"cc",28311.094,6,0.100,1767.000,0.200,279.000,0.300,35.000,0.500,4.000,1.000,1.000,5.000,0
"05/11/08","14:16:51",1947.000,"cc",28226.557,6,0.100,1629.000,0.200,279.000,0.300,34.000,0.500,5.000,1.000,0,5.000,0
"05/11/08","14:16:57",1788.000,"cc",28303.818,6,0.100,1470.000,0.200,276.000,0.300,35.000,0.500,7.000,1.000,0,5.000,0
"05/11/08","14:17:03",1845.000,"cc",28291.797,6,0.100,1540.000,0.200,264.000,0.300,33.000,0.500,7.000,1.000,1.000,5.000,0
"05/11/08","14:17:09",1851.000,"cc",28342.928,6,0.100,1528.000,0.200,291.000,0.300,29.000,0.500,3.000,1.000,0,5.000,0
"05/11/08","14:17:15",1872.000,"cc",28346.602,6,0.100,1558.000,0.200,280.000,0.300,32.000,0.500,2.000,1.000,0,5.000,0
"05/11/08","14:17:21",1820.000,"cc",28282.943,6,0.100,1523.000,0.200,268.000,0.300,26.000,0.500,3.000,1.000,0,5.000,0
"05/11/08","14:17:27",1994.000,"cc",28307.539,6,0.100,1673.000,0.200,292.000,0.300,27.000,0.500,2.000,1.000,0,5.000,0
"05/11/08","14:17:33",1839.000,"cc",28275.926,6,0.100,1525.000,0.200,282.000,0.300,28.000,0.500,4.000,1.000,0,5.000,0
"05/11/08","14:17:39",1921.000,"cc",28361.854,6,0.100,1580.000,0.200,307.000,0.300,25.000,0.500,7.000,1.000,2.000,5.000,0
"05/11/08","14:17:45",1902.000,"cc",28311.967,6,0.100,1604.000,0.200,263.000,0.300,25.000,0.500,10.000,1.000,0,5.000,0
"05/11/08","14:17:51",1922.000,"cc",28363.514,6,0.100,1597.000,0.200,280.000,0.300,42.000,0.500,3.000,1.000,0,5.000,0
"05/11/08","14:17:57",2462.000,"cc",28335.191,6,0.100,2073.000,0.200,341.000,0.300,40.000,0.500,8.000,1.000,0,5.000,0
"05/11/08","14:18:03",2335.000,"cc",28281.065,6,0.100,1978.000,0.200,314.000,0.300,33.000,0.500,10.000,1.000,0,5.000,0
"05/11/08","14:18:09",2655.000,"cc",28315.654,6,0.100,2253.000,0.200,365.000,0.300,29.000,0.500,8.000,1.000,0,5.000,0
"05/11/08","14:18:15",3847.000,"cc",28367.088,6,0.100,3276.000,0.200,520.000,0.300,46.000,0.500,5.000,1.000,0,5.000,0
"05/11/08","14:18:21",2401.000,"cc",28339.574,6,0.100,2002.000,0.200,357.000,0.300,35.000,0.500,6.000,1.000,1.000,5.000,0
"05/11/08","14:18:27",3220.000,"cc",28327.789,6,0.100,2734.000,0.200,454.000,0.300,27.000,0.500,5.000,1.000,0,5.000,0
"05/11/08","14:18:33",2187.000,"cc",28332.979,6,0.100,1847.000,0.200,300.000,0.300,34.000,0.500,4.000,1.000,2.000,5.000,0
"05/11/08","14:18:39",2360.000,"cc",28282.969,6,0.100,1994.000,0.200,327.000,0.300,31.000,0.500,7.000,1.000,1.000,5.000,0
"05/11/08","14:18:45",2586.000,"cc",28334.471,6,0.100,2178.000,0.200,370.000,0.300,30.000,0.500,8.000,1.000,0,5.000,0
"05/11/08","14:18:51",2501.000,"cc",28353.930,6,0.100,2099.000,0.200,370.000,0.300,28.000,0.500,4.000,1.000,0,5.000,0